| time (UTC) | temp C | wind direction | speed KPH | gust KPH | rain 1hr cm | rain 24hr cm | rain mn cm | humidity % | barometer mb |
| 20260905164311 | 18 | 202 | 0.0 | 16.1 | 0.00 | 0.25 | 0.25 | 62 | 1020.8 |
| 20260905163311 | 18 | 180 | 8.0 | 17.7 | 0.00 | 0.25 | 0.25 | 62 | 1020.6 |
| 20260905162310 | 18 | 292 | 0.0 | 11.3 | 0.00 | 0.25 | 0.25 | 63 | 1020.6 |
| 20260905161310 | 18 | 247 | 4.8 | 20.9 | 0.00 | 0.25 | 0.25 | 63 | 1020.9 |
| 20260905160310 | 18 | 315 | 4.8 | 16.1 | 0.00 | 0.25 | 0.25 | 62 | 1020.5 |
| 20260905155310 | 18 | 180 | 1.6 | 24.1 | 0.00 | 0.25 | 0.25 | 62 | 1020.5 |
| 20260905154310 | 18 | 225 | 0.0 | 14.5 | 0.00 | 0.25 | 0.25 | 65 | 1020.5 |
| 20260905153310 | 18 | 247 | 1.6 | 16.1 | 0.00 | 0.25 | 0.25 | 63 | 1020.4 |
| 20260905152311 | 18 | 180 | 6.4 | 27.4 | 0.00 | 0.25 | 0.25 | 63 | 1020.6 |
| 20260905151310 | 18 | 180 | 4.8 | 14.5 | 0.00 | 0.25 | 0.25 | 66 | 1020.7 |
| 20260905145309 | 18 | 270 | 6.4 | 24.1 | 0.03 | 0.25 | 0.25 | 62 | 1020.4 |
| 20260905144309 | 18 | 180 | 6.4 | 24.1 | 0.03 | 0.25 | 0.25 | 62 | 1020.6 |
| 20260905143314 | 18 | 337 | 1.6 | 22.5 | 0.03 | 0.25 | 0.25 | 64 | 1020.6 |
| 20260905142314 | 18 | 180 | 3.2 | 11.3 | 0.03 | 0.25 | 0.25 | 65 | 1020.6 |
| 20260905141313 | 18 | 180 | 4.8 | 27.4 | 0.03 | 0.25 | 0.25 | 68 | 1020.8 |
| 20260905140313 | 17 | 202 | 4.8 | 17.7 | 0.00 | 0.23 | 0.23 | 69 | 1020.9 |
| 20260905135313 | 18 | 247 | 6.4 | 14.5 | 0.00 | 0.23 | 0.23 | 69 | 1020.9 |
| 20260905132313 | 18 | 270 | 3.2 | 17.7 | 0.00 | 0.23 | 0.23 | 69 | 1020.9 |
| 20260905130313 | 17 | 180 | 6.4 | 22.5 | 0.00 | 0.23 | 0.23 | 72 | 1020.6 |
| 20260905124313 | 17 | 292 | 4.8 | 11.3 | 0.00 | 0.23 | 0.23 | 76 | 1020.7 |
| 20260905123312 | 16 | 180 | 3.2 | 17.7 | 0.00 | 0.23 | 0.23 | 78 | 1021.1 |
| 20260905122312 | 16 | 180 | 4.8 | 11.3 | 0.00 | 0.23 | 0.23 | 84 | 1021.0 |
| 20260905121312 | 15 | 315 | 3.2 | 11.3 | 0.00 | 0.23 | 0.23 | 86 | 1021.1 |
| 20260905120312 | 15 | 180 | 3.2 | 14.5 | 0.00 | 0.23 | 0.23 | 86 | 1020.8 |
| 20260905115312 | 14 | 0 | 0.0 | 8.0 | 0.00 | 0.23 | 0.23 | 88 | 1020.8 |
| 20260905113312 | 13 | 0 | 0.0 | 0.0 | 0.00 | 0.23 | 0.23 | 90 | 1020.6 |
| 20260905112311 | 13 | 0 | 0.0 | 8.0 | 0.00 | 0.23 | 0.23 | 91 | 1020.6 |
| 20260905111311 | 13 | 270 | 1.6 | 11.3 | 0.00 | 0.23 | 0.23 | 92 | 1020.3 |
| 20260905110311 | 13 | 0 | 0.0 | 12.9 | 0.00 | 0.23 | 0.23 | 92 | 1019.9 |
| 20260905105311 | 13 | 180 | 0.0 | 8.0 | 0.00 | 0.23 | 0.23 | 92 | 1019.9 |
| 20260905104311 | 12 | 270 | 0.0 | 8.0 | 0.00 | 0.23 | 0.23 | 92 | 1019.9 |
| 20260905102311 | 12 | 0 | 0.0 | 4.8 | 0.00 | 0.23 | 0.23 | 93 | 1019.8 |
| 20260905100310 | 12 | 0 | 0.0 | 0.0 | 0.00 | 0.23 | 0.23 | 93 | 1019.9 |
| 20260905095310 | 12 | 292 | 1.6 | 8.0 | 0.00 | 0.23 | 0.23 | 93 | 1019.9 |
| 20260905094310 | 12 | 0 | 0.0 | 11.3 | 0.00 | 0.23 | 0.23 | 93 | 1019.9 |
| 20260905093310 | 12 | 0 | 0.0 | 0.0 | 0.00 | 0.23 | 0.23 | 93 | 1019.9 |
| 20260905092310 | 12 | 0 | 0.0 | 11.3 | 0.00 | 0.23 | 0.23 | 93 | 1019.9 |
| 20260905090309 | 12 | 0 | 0.0 | 4.8 | 0.00 | 0.23 | 0.23 | 93 | 1019.5 |
| 20260905085309 | 11 | 247 | 3.2 | 8.0 | 0.00 | 0.23 | 0.23 | 93 | 1019.5 |
| 20260905084309 | 11 | 225 | 1.6 | 11.3 | 0.00 | 0.23 | 0.23 | 92 | 1019.4 |
| 20260905083309 | 11 | 0 | 0.0 | 6.4 | 0.00 | 0.23 | 0.23 | 92 | 1019.3 |
| 20260905082314 | 12 | 292 | 0.0 | 16.1 | 0.00 | 0.23 | 0.23 | 91 | 1019.3 |
| 20260905081314 | 12 | 0 | 0.0 | 0.0 | 0.00 | 0.23 | 0.23 | 90 | 1019.5 |
| 20260905075314 | 12 | 337 | 1.6 | 8.0 | 0.00 | 0.23 | 0.23 | 90 | 1019.3 |
| 20260905074314 | 12 | 0 | 0.0 | 4.8 | 0.03 | 0.23 | 0.23 | 91 | 1018.9 |
| 20260905073313 | 12 | 0 | 0.0 | 0.0 | 0.03 | 0.23 | 0.23 | 91 | 1018.8 |
| 20260905072313 | 12 | 0 | 0.0 | 4.8 | 0.05 | 0.23 | 0.23 | 91 | 1018.8 |
| 20260905070313 | 12 | 0 | 0.0 | 0.0 | 0.05 | 0.23 | 0.23 | 91 | 1017.7 |
| 20260905065313 | 12 | 0 | 0.0 | 0.0 | 0.05 | 0.23 | 0.23 | 91 | 1017.7 |
| 20260905064313 | 12 | 0 | 0.0 | 0.0 | 0.05 | 0.23 | 0.23 | 91 | 1017.7 |
| 20260905062312 | 12 | 0 | 0.0 | 0.0 | 0.05 | 0.20 | 0.20 | 89 | 1017.3 |
| 20260905061312 | 12 | 0 | 0.0 | 0.0 | 0.08 | 0.20 | 0.20 | 88 | 1017.6 |
| 20260905055312 | 12 | 0 | 0.0 | 0.0 | 0.18 | 0.20 | 0.20 | 85 | 1017.7 |
| 20260905054312 | 13 | 0 | 0.0 | 0.0 | 0.18 | 0.18 | 0.18 | 83 | 1018.1 |
| 20260905053312 | 13 | 360 | 0.0 | 8.0 | 0.18 | 0.18 | 0.18 | 83 | 1018.6 |
| 20260905052312 | 13 | 0 | 0.0 | 4.8 | 0.15 | 0.15 | 0.15 | 80 | 1018.7 |
| 20260905051311 | 13 | 0 | 0.0 | 3.2 | 0.13 | 0.13 | 0.13 | 77 | 1019.0 |
| 20260905050311 | 14 | 0 | 0.0 | 16.1 | 0.13 | 0.13 | 0.13 | 73 | 1018.7 |
| 20260905045311 | 15 | 315 | 8.0 | 20.9 | 0.03 | 0.03 | 0.03 | 67 | 1018.8 |
| 20260905044313 | 15 | 45 | 11.3 | 22.5 | 0.00 | 0.00 | 0.00 | 62 | 1018.3 |
| 20260905043311 | 16 | 315 | 1.6 | 27.4 | 0.00 | 0.00 | 0.00 | 62 | 1017.1 |
| 20260905042311 | 16 | 360 | 12.9 | 35.4 | 0.00 | 0.00 | 0.00 | 65 | 1017.1 |
| 20260905041311 | 16 | 337 | 9.7 | 22.5 | 0.00 | 0.00 | 0.00 | 67 | 1017.2 |
| 20260905040310 | 16 | 360 | 4.8 | 14.5 | 0.00 | 0.00 | 0.00 | 66 | 1016.7 |
| 20260905034310 | 16 | 22 | 17.7 | 22.5 | 0.00 | 0.00 | 0.00 | 67 | 1016.4 |
| 20260905033310 | 16 | 45 | 11.3 | 20.9 | 0.00 | 0.00 | 0.00 | 69 | 1016.3 |
| 20260905032310 | 17 | 22 | 1.6 | 20.9 | 0.00 | 0.00 | 0.00 | 70 | 1016.5 |
| 20260905031310 | 17 | 45 | 12.9 | 19.3 | 0.00 | 0.00 | 0.00 | 72 | 1016.8 |
| 20260905030310 | 17 | 360 | 16.1 | 25.7 | 0.00 | 0.00 | 0.00 | 73 | 1016.4 |
| 20260905025309 | 17 | 22 | 20.9 | 25.7 | 0.00 | 0.00 | 0.00 | 74 | 1016.6 |
| 20260905024310 | 17 | 360 | 14.5 | 17.7 | 0.00 | 0.00 | 0.00 | 74 | 1016.1 |
| 20260905023309 | 17 | 45 | 8.0 | 12.9 | 0.00 | 0.00 | 0.00 | 75 | 1016.1 |
| 20260905022309 | 17 | 67 | 6.4 | 12.9 | 0.00 | 0.00 | 0.00 | 75 | 1016.1 |
| 20260905021309 | 17 | 22 | 9.7 | 14.5 | 0.00 | 0.00 | 0.00 | 77 | 1016.1 |
| 20260905015314 | 17 | 0 | 0.0 | 0.0 | 0.00 | 0.00 | 0.00 | 76 | 1016.1 |
| 20260905014314 | 17 | 0 | 0.0 | 4.8 | 0.00 | 0.00 | 0.00 | 76 | 1016.1 |
| 20260905013313 | 17 | 0 | 0.0 | 0.0 | 0.00 | 0.00 | 0.00 | 75 | 1016.1 |
| 20260905012313 | 17 | 0 | 0.0 | 0.0 | 0.00 | 0.00 | 0.00 | 75 | 1015.9 |
| 20260905011313 | 17 | 0 | 0.0 | 12.9 | 0.00 | 0.00 | 0.00 | 75 | 1016.0 |
| 20260905010313 | 17 | 0 | 0.0 | 3.2 | 0.00 | 0.00 | 0.00 | 75 | 1016.2 |
| 20260905005313 | 17 | 0 | 0.0 | 0.0 | 0.00 | 0.00 | 0.00 | 75 | 1016.0 |
| 20260905004313 | 17 | 0 | 0.0 | 0.0 | 0.00 | 0.00 | 0.00 | 76 | 1015.6 |
| 20260905003313 | 17 | 0 | 0.0 | 0.0 | 0.00 | 0.00 | 0.00 | 75 | 1015.6 |
| 20260905002312 | 17 | 45 | 0.0 | 1.6 | 0.00 | 0.00 | 0.00 | 75 | 1015.4 |
| 20260905000312 | 17 | 0 | 0.0 | 3.2 | 0.00 | 0.00 | 0.00 | 76 | 1015.2 |
| 20260904235312 | 17 | 0 | 0.0 | 0.0 | 0.00 | 0.00 | 0.00 | 76 | 1015.2 |
| 20260904234312 | 17 | 45 | 1.6 | 4.8 | 0.00 | 0.00 | 0.00 | 76 | 1015.2 |
| 20260904233312 | 17 | 0 | 0.0 | 0.0 | 0.00 | 0.00 | 0.00 | 76 | 1015.2 |
| 20260904232312 | 17 | 0 | 0.0 | 4.8 | 0.00 | 0.00 | 0.00 | 75 | 1015.0 |
| 20260904231312 | 17 | 22 | 3.2 | 6.4 | 0.00 | 0.00 | 0.00 | 76 | 1014.9 |
| 20260904230311 | 17 | 0 | 0.0 | 4.8 | 0.00 | 0.00 | 0.00 | 75 | 1014.9 |
| 20260904225311 | 17 | 22 | 1.6 | 4.8 | 0.00 | 0.00 | 0.00 | 75 | 1014.8 |
| 20260904223311 | 17 | 45 | 4.8 | 6.4 | 0.00 | 0.00 | 0.00 | 75 | 1014.5 |
| 20260904221311 | 17 | 45 | 3.2 | 6.4 | 0.00 | 0.00 | 0.00 | 76 | 1014.5 |
| 20260904220311 | 17 | 45 | 4.8 | 8.0 | 0.00 | 0.00 | 0.00 | 75 | 1014.5 |
| 20260904215311 | 17 | 22 | 3.2 | 6.4 | 0.00 | 0.00 | 0.00 | 75 | 1014.5 |
| 20260904214310 | 17 | 360 | 1.6 | 6.4 | 0.00 | 0.00 | 0.00 | 75 | 1014.3 |
| 20260904213312 | 17 | 22 | 4.8 | 6.4 | 0.00 | 0.00 | 0.00 | 75 | 1014.3 |
| 20260904211310 | 17 | 45 | 6.4 | 8.0 | 0.00 | 0.00 | 0.00 | 74 | 1014.2 |
| 20260904210310 | 17 | 45 | 6.4 | 8.0 | 0.00 | 0.00 | 0.00 | 75 | 1014.1 |
| 20260904205310 | 17 | 45 | 4.8 | 8.0 | 0.00 | 0.00 | 0.00 | 75 | 1014.3 |
| 20260904204309 | 17 | 22 | 4.8 | 8.0 | 0.00 | 0.00 | 0.00 | 74 | 1014.4 |
| 20260904203309 | 17 | 45 | 4.8 | 8.0 | 0.00 | 0.00 | 0.00 | 74 | 1014.4 |
| 20260904202309 | 17 | 22 | 4.8 | 6.4 | 0.00 | 0.00 | 0.00 | 73 | 1014.2 |
| 20260904201309 | 17 | 45 | 4.8 | 6.4 | 0.00 | 0.00 | 0.00 | 72 | 1014.0 |
| 20260904200309 | 17 | 45 | 6.4 | 8.0 | 0.00 | 0.00 | 0.00 | 72 | 1014.0 |
| 20260904195309 | 17 | 22 | 4.8 | 8.0 | 0.00 | 0.00 | 0.00 | 71 | 1014.0 |
| 20260904194314 | 17 | 45 | 4.8 | 8.0 | 0.00 | 0.00 | 0.00 | 71 | 1014.0 |
| 20260904193314 | 17 | 22 | 6.4 | 8.0 | 0.00 | 0.00 | 0.00 | 70 | 1013.8 |
| 20260904192313 | 17 | 22 | 4.8 | 6.4 | 0.00 | 0.00 | 0.00 | 69 | 1014.0 |
| 20260904190313 | 18 | 45 | 3.2 | 8.0 | 0.00 | 0.00 | 0.00 | 69 | 1014.0 |
| 20260904184313 | 18 | 45 | 4.8 | 8.0 | 0.00 | 0.00 | 0.00 | 67 | 1013.9 |
| 20260904183313 | 18 | 22 | 4.8 | 8.0 | 0.00 | 0.00 | 0.00 | 66 | 1013.5 |
| 20260904182313 | 19 | 22 | 6.4 | 6.4 | 0.00 | 0.00 | 0.00 | 65 | 1013.7 |
| 20260904181313 | 20 | 22 | 3.2 | 8.0 | 0.00 | 0.00 | 0.00 | 64 | 1013.4 |
| 20260904180313 | 20 | 67 | 1.6 | 6.4 | 0.00 | 0.00 | 0.00 | 62 | 1013.4 |
| 20260904175312 | 21 | 22 | 4.8 | 6.4 | 0.00 | 0.00 | 0.00 | 60 | 1013.4 |
| 20260904174312 | 22 | 45 | 1.6 | 6.4 | 0.00 | 0.00 | 0.00 | 57 | 1013.6 |
| 20260904173312 | 22 | 22 | 3.2 | 4.8 | 0.00 | 0.00 | 0.00 | 56 | 1013.6 |
| 20260904172312 | 23 | 360 | 1.6 | 3.2 | 0.00 | 0.00 | 0.00 | 53 | 1013.6 |
| 20260904171312 | 23 | 0 | 0.0 | 0.0 | 0.00 | 0.00 | 0.00 | 50 | 1013.8 |